星链-35174(STARLINK-35174)

导读 | 豆包AI

STARLINK-35174是美国SpaceX星链星座的成员卫星,于2025年9月13日发射入轨,属于星链互联网卫星星座扩容任务的一部分。星链系统旨在为全球提供高速低延迟宽带互联网服务,该卫星延续星链设计,承担太空组网、覆盖补盲任务,进一步拓展了星座全球服务能力。

基本信息
目录编号:
65615
目录名称:
STARLINK-35174
国际标识:
2025-207Z
轨道中心:
EARTH
卫星名称:
星链-35174
卫星全名:
星链-35174(STARLINK-35174)
卫星状态:
在轨 (已飞行228 天)
发射日期:
2025-09-13 UTC
国别 :
美国 (US)
星等 :
--
轨道信息
数据来源 国际轨道数据 AOE轨道数据
星历时间 2026-04-29T12:00:58+0800
4小时前
查看轨道信息
2026-04-22T21:00:00+0800
6天前
查看轨道信息
半长轴 6927.624km 6927.666km
偏心率 0.000153 0.0001328
轨道倾角 97.558° 97.590°
近地点辐角 159.892° 217.040°
升交点赤经 188.340° 181.842°
平近点角 200.237° 252.285°
近地点 548.427km 548.609km
远地点 550.547km 550.449km
周期 95.639分钟 95.640分钟
每日圈数 15.056582 15.056443
详细信息
固有亮度:
5
最大亮度:
2.5
卫星平台:
Starlink V1.0
覆盖范围:
全球
运营商:
太空探索技术公司
运营商所在国:
美国
制造商(研发单位):
太空探索技术公司
制造商所在国:
美国
使用方式:
暂无
卫星简介
Starlink 计划是 SpaceX 推出的全球卫星互联网项目,通过发射低轨道卫星,为全球尤其是偏远地区提供高速、低延迟的互联网服务。自 2019 年起,Starlink 已部署数千颗卫星,旨在缩小全球数字鸿沟,推动互联网普及。该项目还为军事、航空等行业提供通信支持,带来广泛经济效益。
2D轨道图
3D轨道图
轨道高度分析图
轨道倾角分析图
轨道综合分析图
查看轨道综合分析图